N368SA KBDL-KLKP

Flight info

Callsign N368SA
Flight time N/A
Altitude VFR/075
Route
Aircraft P28S/L-VGD/C

Departure

Time 2025-12-29 23:48
Airport Bradley International Airport (KBDL)

Arrival

Time N/A
Airport Lake Placid Airport (KLKP)
Time Latitude Longitude Altitude Speed Heading
2025-12-29 23:34 41.93807 -72.69327 199 ft 0 kts 218°
2025-12-29 23:39 41.93797 -72.69335 201 ft 6 kts 204°
2025-12-29 23:40 41.93793 -72.69185 199 ft 19 kts 44°
2025-12-29 23:40 41.93837 -72.69002 201 ft 5 kts 134°
2025-12-29 23:41 41.93836 -72.69001 201 ft 0 kts 134°
2025-12-29 23:42 41.93700 -72.68783 206 ft 19 kts 112°
2025-12-29 23:42 41.93973 -72.68391 202 ft 20 kts 45°
2025-12-29 23:43 41.94076 -72.68266 200 ft 20 kts 43°
2025-12-29 23:43 41.94256 -72.68048 207 ft 19 kts 44°
2025-12-29 23:44 41.94475 -72.67763 200 ft 29 kts 44°
2025-12-29 23:44 41.94746 -72.67406 206 ft 28 kts 44°
2025-12-29 23:45 41.95003 -72.67144 204 ft 9 kts 326°
2025-12-29 23:45 41.95006 -72.67148 205 ft 0 kts 314°
2025-12-29 23:46 41.95028 -72.67181 208 ft 10 kts 301°
2025-12-29 23:47 41.94767 -72.67611 212 ft 66 kts 224°
2025-12-29 23:47 41.93977 -72.68422 597 ft 79 kts 216°
2025-12-29 23:48 41.92945 -72.69090 1089 ft 86 kts 207°
2025-12-29 23:48 41.91731 -72.69452 1655 ft 97 kts 203°
2025-12-29 23:49 41.90558 -72.69594 2236 ft 77 kts 221°
2025-12-29 23:49 41.89139 -72.70295 2832 ft 85 kts 215°
2025-12-29 23:50 41.88132 -72.71152 3177 ft 89 kts 228°
2025-12-29 23:50 41.87072 -72.72079 3572 ft 91 kts 229°
2025-12-29 23:51 41.86536 -72.72539 3773 ft 91 kts 229°
2025-12-29 23:51 41.85452 -72.73449 4162 ft 93 kts 229°
2025-12-29 23:52 41.84358 -72.74351 4543 ft 92 kts 228°
2025-12-29 23:52 41.83266 -72.75286 4903 ft 93 kts 229°
2025-12-29 23:53 41.82187 -72.76239 5257 ft 93 kts 228°
2025-12-29 23:53 41.80585 -72.77698 5789 ft 94 kts 228°
2025-12-29 23:54 41.79513 -72.78685 6097 ft 93 kts 229°
2025-12-29 23:54 41.78984 -72.79177 6244 ft 92 kts 228°
2025-12-29 23:55 41.77956 -72.80160 6570 ft 90 kts 229°
2025-12-29 23:55 41.76960 -72.81131 6952 ft 88 kts 229°
2025-12-29 23:56 41.75986 -72.82092 7337 ft 85 kts 229°
2025-12-29 23:56 41.75029 -72.83070 7529 ft 92 kts 229°
2025-12-29 23:57 41.73974 -72.84229 7520 ft 99 kts 231°
2025-12-29 23:57 41.72304 -72.86047 7529 ft 105 kts 230°
2025-12-29 23:58 41.71164 -72.87298 7525 ft 106 kts 230°
2025-12-29 23:58 41.70603 -72.87939 7513 ft 104 kts 234°
2025-12-29 23:59 41.71269 -72.89257 7489 ft 137 kts 345°
2025-12-29 23:59 41.73176 -72.88932 7509 ft 134 kts 345°
2025-12-30 00:00 41.75056 -72.88856 7518 ft 136 kts 347°
2025-12-30 00:00 41.76939 -72.88859 7504 ft 130 kts 337°
2025-12-30 00:01 41.78691 -72.89355 7512 ft 128 kts 334°
2025-12-30 00:01 41.81283 -72.90060 7502 ft 126 kts 334°
2025-12-30 00:02 41.82656 -72.91001 7499 ft 103 kts 287°
2025-12-30 00:02 41.83323 -72.92745 7513 ft 106 kts 289°
2025-12-30 00:03 41.83651 -72.93625 7511 ft 106 kts 289°
2025-12-30 00:03 41.84330 -72.95391 7499 ft 109 kts 293°
2025-12-30 00:04 41.85887 -72.96194 7498 ft 122 kts 329°
2025-12-30 00:04 41.87515 -72.96815 7499 ft 121 kts 330°
2025-12-30 00:05 41.89165 -72.97434 7499 ft 124 kts 330°
2025-12-30 00:05 41.90841 -72.98072 7508 ft 127 kts 330°
2025-12-30 00:06 41.92542 -72.98732 7509 ft 127 kts 330°
2025-12-30 00:06 41.94243 -72.99399 7504 ft 127 kts 330°
2025-12-30 00:07 41.95932 -73.00057 7504 ft 126 kts 330°
2025-12-30 00:07 41.97617 -73.00711 7504 ft 127 kts 330°
2025-12-30 00:08 41.99320 -73.01373 7508 ft 128 kts 330°
2025-12-30 00:08 42.01010 -73.02045 7498 ft 124 kts 328°
2025-12-30 00:09 42.02656 -73.02777 7495 ft 128 kts 328°
2025-12-30 00:09 42.05181 -73.03912 7493 ft 126 kts 328°
2025-12-30 00:10 42.06004 -73.04269 7494 ft 124 kts 328°
2025-12-30 00:10 42.07666 -73.04989 7494 ft 125 kts 328°
2025-12-30 00:11 42.09330 -73.05724 7495 ft 126 kts 328°
2025-12-30 00:11 42.10996 -73.06457 7495 ft 126 kts 328°
2025-12-30 00:12 42.12660 -73.07182 7486 ft 124 kts 328°
2025-12-30 00:12 42.14264 -73.07858 7485 ft 121 kts 328°
2025-12-30 00:13 42.15889 -73.08555 7485 ft 122 kts 328°
2025-12-30 00:13 42.18338 -73.09591 7488 ft 123 kts 329°
2025-12-30 00:14 42.19159 -73.09915 7487 ft 124 kts 329°
2025-12-30 00:14 42.20798 -73.10566 7487 ft 123 kts 329°
2025-12-30 00:15 42.23262 -73.11552 7498 ft 124 kts 329°
2025-12-30 00:15 42.24091 -73.11883 7500 ft 124 kts 329°
2025-12-30 00:16 42.25766 -73.12563 7506 ft 126 kts 329°
2025-12-30 00:16 42.27470 -73.13266 7501 ft 130 kts 329°
2025-12-30 00:17 42.29195 -73.13987 7499 ft 131 kts 329°
2025-12-30 00:17 42.31754 -73.15000 7496 ft 126 kts 330°
2025-12-30 00:18 42.32610 -73.15326 7498 ft 126 kts 330°
2025-12-30 00:18 42.34305 -73.15974 7503 ft 128 kts 330°
2025-12-30 00:19 42.36022 -73.16631 7501 ft 127 kts 330°
2025-12-30 00:19 42.36862 -73.16952 7502 ft 127 kts 330°
2025-12-30 00:19 42.38577 -73.17612 7508 ft 129 kts 330°
2025-12-30 00:20 42.41163 -73.18615 7512 ft 130 kts 330°
2025-12-30 00:21 42.42910 -73.19303 7507 ft 131 kts 330°
2025-12-30 00:21 42.44648 -73.19988 7508 ft 130 kts 330°